Tracking 19638 objects as of 19-May-2019
HD Live streaming from Space Station
objects crossing your sky now

SOLRAD 3/INJUN 1

Track SOLRAD 3/INJUN 1 now!
10-day predictions
SOLRAD 3/INJUN 1 is classified as:


NORAD ID: 117
Int'l Code: 1961-015B
Perigee: 875.2 km
Apogee: 997.5 km
Inclination: 66.8 °
Period: 103.6 minutes
Semi major axis: 7307 km
RCS: 0.4448 m2 (medium)
Launch date: June 29, 1961
Source: United States (US)
Launch site: AIR FORCE EASTERN TEST RANGE (AFETR)
aabbcc
Your satellite tracking list
Your tracking list is empty




NASA's NSSDC Master Catalog

Two Line Element Set (TLE):
1   117U 61015B   19138.61037064 -.00000030  00000-0  36880-4 0  9994
2   117  66.8115 188.5179 0083665 303.7675  55.5453 13.89839434935024
Source of the keplerian elements: AFSPC